Location: ?????
(30.5106°N, 47.8460°E)
Time: 05:52:33
(UTC+00:00)

Daily predictions for brighter satellites

Satellite Brightness Start Highest point End
(mag) Time Altitude Azimuth Time Altitude Azimuth Time Altitude Azimuth
Iridium 2 3.6 00:03:41 10° N 00:07:25 66° W 00:08:06 52° SW
STARLINK-1271 4.1 00:03:42 10° NW 00:07:47 60° NE 00:11:52 10° SE
STARLINK-58 3.1 00:09:17 55° SSE 00:09:33 58° SE 00:12:41 10° NE
STARLINK-22 2.9 00:10:27 64° W 00:10:41 68° NW 00:13:52 10° NE
BREEZE-M TANK 4.4 00:09:19 17° S 00:10:53 20° SSE 00:13:20 10° E
Cosmos 1825 4.5 00:08:13 10° SE 00:11:11 22° E 00:14:08 10° NE
Cosmos 2221 2.7 00:07:24 10° N 00:11:44 73° E 00:15:49 12° SSE
SL-16 R/B 4.3 00:13:22 14° W 00:13:22 14° W 00:15:18 10° WNW
CZ-4C R/B 3.4 00:09:42 16° SSE 00:12:26 66° ENE 00:16:02 10° N
STARLINK-1154 3.9 00:08:39 10° NW 00:12:47 68° NE 00:16:53 10° SE
STARLINK-1197 3.7 00:13:36 10° NW 00:17:45 76° NE 00:21:52 10° SE
STARLINK-48 3.8 00:19:11 31° SSW 00:20:45 56° SE 00:24:33 10° NE
Cosmos 2058 2.8 00:19:09 29° SSW 00:21:12 73° W 00:25:24 10° N
STARLINK-1198 3.6 00:18:36 10° NW 00:22:45 86° NE 00:26:53 10° SE
Cosmos 2297 Rocket 3.7 00:22:10 10° WNW 00:24:53 17° W 00:24:53 17° W
Meteor 2-2 Rocket 4.4 00:20:33 10° N 00:26:36 89° E 00:32:35 10° S
STARLINK-1199 3.5 00:23:33 10° NW 00:27:41 84° SW 00:31:49 10° SE
Cosmos 2150 Rocket 4.0 00:23:55 10° NNW 00:29:06 83° ENE 00:34:14 10° SSE
Lacrosse 4 Rocket 1.3 00:25:31 10° NNW 00:29:44 63° WSW 00:33:48 10° SSE
STARLINK-1301 3.9 00:30:00 28° W 00:31:14 39° NW 00:34:30 10° NNE
Cosmos 2082 4.3 00:26:22 10° NW 00:31:25 35° WSW 00:36:02 12° SSW
STARLINK-1210 3.5 00:28:33 10° NW 00:32:41 75° SW 00:36:47 10° SE
Meteor 1-28 Rocket 4.0 00:32:33 27° SW 00:33:29 31° W 00:36:52 10° NW
STARLINK-1307 3.8 00:32:35 27° W 00:33:59 43° NW 00:37:18 10° NNE
ARIANE 5 R/B 3.9 00:30:46 10° NNW 00:34:30 21° WNW 00:36:23 17° W
Cosmos 2322 Rocket 2.2 00:30:11 15° SSW 00:34:56 84° ESE 00:40:34 10° NNE
Shenzhou-11 Module 1.7 00:34:25 42° SSW 00:34:56 54° SE 00:37:21 10° ENE
H-2A R/B 2.2 00:31:29 14° S 00:34:59 50° W 00:39:14 10° NNW
STARLINK-1290 3.9 00:35:03 25° W 00:36:32 40° NW 00:39:47 10° NNE
NOSS 2-1 (E) 3.0 00:34:52 27° SW 00:36:34 62° WNW 00:39:55 10° NNE
STARLINK-1219 3.5 00:33:31 10° NW 00:37:38 66° SW 00:41:43 10° SSE
STARLINK-1316 4.0 00:36:36 24° W 00:37:48 32° NW 00:40:39 10° NNE
ADEOS II 4.1 00:36:49 10° NW 00:38:42 12° WNW 00:40:26 10° W
STARLINK-1257 4.0 00:37:29 23° W 00:38:42 31° NW 00:41:32 10° NNE
Cosmos 2263 Rocket 3.2 00:33:21 10° N 00:38:46 49° ENE 00:44:07 10° SE
STARLINK-1297 4.0 00:37:33 23° W 00:39:09 37° NW 00:42:23 10° NNE
STARLINK-1256 4.1 00:38:20 22° W 00:39:36 31° NW 00:42:25 10° NNE
STARLINK-1311 4.3 00:39:05 19° WNW 00:40:14 25° NW 00:42:46 10° NNE
STARLINK-1213 4.1 00:39:13 21° W 00:40:31 30° NW 00:43:18 10° NNE
STARLINK-1263 4.1 00:40:04 21° W 00:41:24 29° NW 00:44:11 10° NNE
STARLINK-1259 4.2 00:40:58 20° W 00:42:20 29° NW 00:45:06 10° NNE
STARLINK-1211 3.6 00:38:32 10° NW 00:42:36 58° SW 00:46:39 10° SSE
STARLINK-1265 4.2 00:41:18 20° W 00:42:43 29° NW 00:45:30 10° NNE
STARLINK-1285 4.2 00:41:48 19° W 00:43:13 28° NW 00:45:58 10° NNE
Cosmos 1892 3.4 00:42:00 21° SW 00:43:57 36° W 00:47:30 10° NNW
Timation 1 Rocket 4.4 00:37:58 10° NNW 00:43:58 86° ENE 00:49:55 10° SSE
deb Chang Zheng 4 3.5 00:40:26 10° N 00:44:42 71° WNW 00:48:41 12° SSW
STARLINK-1268 4.3 00:43:33 18° W 00:45:01 27° NW 00:47:43 10° NNE
STARLINK-1296 4.3 00:43:33 18° W 00:45:03 27° NW 00:47:45 10° NNE
STARLINK-1260 4.3 00:44:25 18° W 00:45:57 26° NW 00:48:39 10° NNE
STARLINK-1302 4.4 00:43:21 14° SSW 00:46:39 45° SE 00:50:36 10° NE
STARLINK-1318 4.4 00:45:17 17° W 00:46:51 26° NW 00:49:31 10° NNE
STARLINK-62 3.7 00:45:15 21° WSW 00:46:56 40° NW 00:49:58 10° NNE
CZ-2C R/B 2.8 00:42:22 10° NNE 00:47:32 72° ESE 00:52:42 10° S
STARLINK-1245 3.7 00:43:33 10° NW 00:47:34 51° SW 00:51:34 10° SSE
STARLINK-1275 4.4 00:46:08 17° W 00:47:44 25° NW 00:50:23 10° NNE
STARLINK-1309 4.4 00:47:01 16° W 00:48:39 24° NW 00:51:17 10° NNE
STARLINK-34 3.8 00:47:04 20° WSW 00:48:49 38° NW 00:51:49 10° NNE
STARLINK-1282 4.5 00:47:52 16° W 00:49:33 24° NW 00:52:10 10° NNE
Cosmos 2227 4.4 00:44:42 10° NNW 00:50:28 77° ENE 00:56:13 10° SSE
STARLINK-1029 3.1 00:48:35 21° WSW 00:50:28 56° NW 00:53:34 10° NNE
SL-8 Rocket 4.0 00:44:49 10° S 00:51:08 77° W 00:57:27 10° N
SAR-Lupe-4 3.5 00:47:56 10° SSE 00:51:30 89° WSW 00:55:06 10° NNW
Cosmos 2298 Rocket 4.2 00:46:24 10° NNW 00:51:31 51° WSW 00:56:38 10° S
STARLINK-1273 4.2 00:48:10 13° SSW 00:51:38 51° SE 00:55:39 10° NE
STARLINK-1233 3.9 00:48:34 10° NW 00:52:31 45° SW 00:56:27 10° SSE
CZ-4B R/B 2.0 00:50:23 10° SSE 00:53:21 53° ENE 00:56:20 10° N
STARLINK-1288 4.0 00:52:57 12° SSW 00:56:36 59° SE 01:00:40 10° NE
STARLINK-1204 4.0 00:53:37 10° WNW 00:57:29 39° SW 01:01:20 10° SSE
STARLINK-64 3.2 00:55:16 16° SW 00:58:04 77° NW 01:01:39 10° NE
Meteor 2-12 Rocket 4.5 00:52:55 10° S 00:58:58 86° E 01:05:02 10° N
IDEFIX/ARIANE 42P 3.8 00:56:49 10° NNW 01:01:04 26° WNW 01:05:06 11° WSW
STARLINK-1308 3.8 00:57:45 12° SSW 01:01:34 68° SE 01:05:40 10° NE
STARLINK-1238 4.2 00:58:40 10° WNW 01:02:27 35° SW 01:06:13 10° SSE
SL-16 R/B 2.7 00:58:18 12° SW 01:03:13 42° WNW 01:08:35 10° N
STARLINK-1201 4.3 01:03:45 10° WNW 01:07:24 31° SW 01:11:03 10° S
SAR-Lupe-1 4.1 01:03:58 10° S 01:07:26 56° W 01:10:55 10° NNW
STARLINK-1304 3.6 01:07:22 10° SW 01:11:30 85° SE 01:15:38 10° NE
STARLINK-1286 3.6 01:07:44 10° SW 01:11:54 89° NW 01:16:04 10° NE
Cosmos 1125 Rocket 3.5 01:07:26 10° NNW 01:12:33 61° WSW 01:17:39 10° S
USA 234 4.2 01:09:28 10° NNE 01:15:20 37° NW 01:21:11 10° WSW
ADEOS 3.7 01:11:11 10° N 01:16:20 64° WNW 01:21:28 10° SSW
Meteor 1-31 Rocket 3.3 01:13:49 10° NNE 01:17:34 59° E 01:21:20 10° S
Skynet4D Del rocket 3.7 01:12:47 10° W 01:18:18 60° S 01:23:33 10° ESE
Cosmos 1408 4.0 01:15:41 10° SW 01:18:34 21° W 01:21:27 10° NNW
Cosmos 2333 Rocket 4.0 01:13:53 10° SSE 01:18:48 32° ESE 01:23:45 10° NE
STARLINK-1299 3.9 01:15:58 10° SW 01:20:07 60° NW 01:24:18 10° NE
STARLINK-61 3.7 01:18:51 10° SW 01:22:43 70° SE 01:26:38 10° NE
STARLINK-1306 3.8 01:20:13 10° SW 01:24:22 64° NW 01:28:31 10° NE
ALOS 3.3 01:20:14 10° NNE 01:24:47 50° E 01:29:16 10° S
STARLINK-1202 4.4 01:20:42 10° NW 01:24:47 57° NE 01:28:51 10° SE
